Location: Mohawk View
(42.7837°N, 73.7885°W)
Time: 08:28:37
(UTC+00:00)

Cosmos 1503 Rocket - Pass Details

Date: 17 June 2021
Orbit: 752 x 791 km, 74.0° (Epoch: 27 July)

Event Time Altitude Azimuth Distance (km) Brightness Sun altitude
Rises 04:11:23 0° 340° (NNW) 3,298 8.7 -23.0°
Reaches altitude 10° 04:13:48 10° 341° (NNW) 2,365 7.6 -23.1°
Maximum altitude 04:19:12 82° 69° (ENE) 802 4.0 -23.3°
Enters shadow 04:20:18 58° 148° (SSE) 921 4.0 -23.3°
